Lid_Strength_Index
3 6 7 7 10 11 14 12 11 11 11 8 6 7 8 8 10 12 3 1 0 0 -0 -0 -0 -1 -1 -1 -1 -1 -1 -1 -1 -1 -1 -1 -1 -2 -2 -1 -2 -1 -2 -2 -2 -2 -2 -1 -1
5 7 7 8 12 15 14 11 11 10 7 6 6 7 8 10 5 4 3 1 0 -0 -0 -0 0 -1 -1 -1 -1 -1 -1 -1 -1 -1 -1 -1 -2 -2 -1 -1 -1 -2 -2 -1 -1 -2 -2 -2 -2
5 7 9 11 12 14 14 12 10 8 6 7 8 6 7 8 5 4 2 0 0 0 -0 -0 0 -1 -1 -1 -1 -1 -1 -1 -2 -1 -1 -2 -2 -1 -1 -1 -1 -2 -2 -2 -1 -1 -1 -1 -1
9 9 10 12 13 11 12 11 9 8 7 7 7 9 6 3 4 2 1 0 0 0 -0 0 -0 -1 -1 -1 -1 -1 -1 -1 -2 -2 -1 -2 -1 -1 -1 -1 -1 -2 -2 -1 -1 -1 -1 -1 -1
9 10 14 14 13 12 12 10 9 8 8 8 8 9 8 4 2 2 1 1 1 1 -0 -0 -0 -1 -1 -1 -1 -1 -1 -1 -1 -2 -2 -2 -1 -1 -1 -1 -2 -2 -2 -1 -1 -1 -1 -1 -1
12 12 16 16 14 12 12 10 9 9 7 8 8 8 7 3 3 2 2 1 0 1 -0 -0 1 0 -0 -1 -1 -1 -1 -1 -1 -1 -1 -1 -1 -1 -1 -2 -2 -2 -1 -1 -1 -1 -1 -1 -2
11 15 16 16 14 13 12 10 10 11 8 8 7 9 7 5 2 2 2 1 0 0 -0 -0 -0 0 1 0 -0 -0 -1 -1 -1 -1 -1 -1 -1 -1 -2 -2 -2 -2 -1 -1 -1 -2 -2 -1 -2
11 13 15 15 16 14 12 11 10 10 9 6 6 9 9 5 2 1 2 2 1 0 0 0 -0 -0 -0 -0 1 1 0 0 -0 -0 0 0 -0 -0 -1 -0 -1 -2 -2 -2 -2 -2 -2 -2 -2
10 15 16 16 15 14 12 12 10 10 9 8 7 7 4 3 2 3 3 3 2 1 1 0 0 -0 -0 -0 1 2 1 1 1 1 1 2 -0 -1 -0 0 -1 -2 -1 -2 -2 -2 -2 -1 -1
12 16 15 13 14 14 12 11 10 11 10 9 7 7 4 3 4 4 4 4 3 2 1 1 1 0 -0 -0 0 0 0 0 0 -0 0 -0 0 -0 -0 1 0 -0 -0 -1 -1 -1 -1 0 0
12 14 13 13 12 12 11 12 10 12 12 9 8 8 5 4 4 4 4 4 3 2 1 1 0 -0 0 0 0 0 0 0 0 0 -0 0 -0 0 -0 1 0 0 2 0 -0 -0 0 0 1
14 12 12 11 11 11 12 11 11 11 10 8 9 6 7 5 5 4 4 4 3 3 1 1 0 0 0 -0 -0 1 0 1 4 4 2 1 1 1 1 1 1 2 2 1 1 2 3 3 1
13 13 12 11 11 12 10 11 12 11 9 9 9 7 6 6 6 5 4 3 3 3 2 1 0 1 0 1 1 2 4 6 8 8 7 6 6 6 6 7 7 7 7 7 7 7 7 6 5
12 13 13 13 12 12 12 13 14 11 9 9 9 9 9 8 7 8 7 5 3 2 2 1 1 0 1 3 3 5 7 8 8 8 7 7 7 7 7 7 7 7 8 8 7 7 7 6 6
12 14 13 13 12 13 12 15 15 10 11 11 12 11 10 9 9 9 9 7 3 2 2 2 2 2 3 4 6 7 8 8 8 8 8 8 7 8 8 9 9 9 8 8 8 8 8 8 7
14 16 17 14 12 13 13 17 13 12 12 13 13 12 11 10 9 9 9 9 3 2 3 4 3 5 6 7 7 8 8 8 9 9 8 8 8 8 9 9 9 8 8 8 8 8 8 8 8
14 17 17 14 13 15 15 17 14 13 12 13 13 13 12 11 11 10 10 9 3 3 5 6 6 6 8 8 8 8 9 9 9 9 8 8 8 8 9 9 9 8 8 8 8 8 8 9 8
16 17 15 15 13 14 16 17 14 13 13 13 13 12 13 12 11 10 10 8 3 5 6 7 7 8 9 9 9 9 9 10 10 9 9 8 8 8 9 9 9 8 9 9 9 9 9 9 9
14 15 15 14 13 14 15 15 14 12 14 14 14 13 12 11 10 11 10 8 4 7 8 9 9 9 9 10 11 11 11 10 9 9 9 8 8 8 9 9 9 9 9 9 9 9 9 10 9
15 17 17 14 14 15 15 15 13 12 12 12 12 12 12 11 11 11 11 9 5 7 8 9 9 9 9 10 10 10 10 10 9 9 9 8 9 9 9 10 10 10 10 10 10 10 11 10 10
15 17 17 16 15 14 16 15 15 12 11 11 11 11 11 11 11 12 11 11 8 8 8 9 10 9 10 9 10 11 10 10 10 10 10 9 9 9 10 10 10 10 10 11 11 11 11 12 11
16 13 13 14 16 19 16 19 15 13 13 12 11 11 11 12 12 12 12 12 9 9 9 10 11 10 10 9 10 10 11 11 11 10 10 10 9 10 10 10 11 11 11 11 11 11 11 11 13
14 13 14 14 17 20 19 22 18 14 13 13 13 12 13 13 12 12 12 11 10 10 11 11 10 9 9 10 9 11 11 11 11 11 10 10 10 10 10 11 11 11 12 12 12 12 13 12 12
13 15 15 16 19 25 17 18 17 15 14 13 12 12 12 13 13 12 11 10 11 12 11 11 10 10 9 9 10 11 11 11 11 11 11 11 11 11 11 11 11 12 12 12 13 13 12 12 11
12 15 19 21 22 22 17 20 16 13 13 12 11 12 13 12 12 12 12 11 12 11 11 10 10 11 11 11 11 11 11 11 11 12 12 12 12 12 12 12 12 12 12 12 12 12 12 11 11
14 14 18 23 22 21 19 20 16 13 12 12 11 12 13 13 12 12 12 12 12 11 11 11 11 11 11 11 11 11 11 11 12 12 12 13 13 12 12 12 12 12 12 12 12 10 10 10 10
14 16 13 17 17 19 19 17 13 13 14 15 15 14 14 13 13 12 12 12 11 11 11 11 11 11 11 11 11 12 11 12 12 12 12 13 12 12 12 12 12 12 12 12 12 12 11 10 9
12 11 17 16 22 23 19 19 17 15 15 15 14 14 14 13 13 12 11 11 11 11 11 11 11 11 11 11 11 11 12 12 12 12 12 12 12 12 12 12 12 12 12 12 12 12 10 9 9
14 15 14 14 16 21 22 19 15 15 14 14 14 14 13 13 13 12 12 11 11 11 10 11 11 11 11 11 12 12 12 12 12 12 12 12 12 12 12 13 13 13 13 12 12 12 10 10 9
12 14 13 17 19 17 18 18 12 13 14 13 14 13 13 13 13 12 12 12 12 11 11 11 12 11 11 12 12 12 12 12 12 12 12 12 13 13 13 13 13 13 13 12 12 11 11 10 10